EWG2CA EDDH-EDDS

Flight info

Callsign EWG2CA
Flight time 0h 56m
Altitude 35000
Route IDEKO7G/33 IDEKO N850 NIE DCT BERXO DCT SILWE DCT OSBIT P605 TOSTU T726 LBU
Aircraft A319/M-SDE3FGHIRWY/LB1

Departure

Time 2026-05-06 19:17
Airport Hamburg Helmut Schmidt Airport (EDDH)

Arrival

Time 2026-05-06 20:14
Airport Stuttgart Airport (EDDS)
Time Latitude Longitude Altitude Speed Heading
2026-05-06 18:56 53.62845 10.00221 49 ft 0 kts 62°
2026-05-06 19:04 53.62845 10.00220 48 ft 1 kts 63°
2026-05-06 19:05 53.62835 10.00187 46 ft 4 kts 59°
2026-05-06 19:05 53.62820 10.00149 45 ft 4 kts 49°
2026-05-06 19:05 53.62801 10.00122 46 ft 4 kts 12°
2026-05-06 19:05 53.62788 10.00121 46 ft 0 kts 333°
2026-05-06 19:11 53.62794 10.00115 47 ft 2 kts 333°
2026-05-06 19:11 53.62811 10.00101 48 ft 4 kts 333°
2026-05-06 19:11 53.62839 10.00075 48 ft 5 kts 324°
2026-05-06 19:11 53.62858 10.00019 48 ft 0 kts 276°
2026-05-06 19:12 53.62858 10.00013 48 ft 2 kts 275°
2026-05-06 19:12 53.62858 10.00008 48 ft 0 kts 262°
2026-05-06 19:12 53.62853 9.99982 48 ft 5 kts 247°
2026-05-06 19:13 53.62845 9.99959 45 ft 0 kts 240°
2026-05-06 19:13 53.62840 9.99945 46 ft 5 kts 240°
2026-05-06 19:13 53.62815 9.99855 45 ft 12 kts 252°
2026-05-06 19:14 53.62850 9.99759 45 ft 0 kts 333°
2026-05-06 19:14 53.62851 9.99759 45 ft 0 kts 333°
2026-05-06 19:16 53.62859 9.99751 44 ft 3 kts 333°
2026-05-06 19:16 53.62973 9.99653 45 ft 40 kts 333°
2026-05-06 19:16 53.63426 9.99264 47 ft 104 kts 332°
2026-05-06 19:17 53.63925 9.98834 50 ft 139 kts 333°
2026-05-06 19:17 53.64896 9.97988 320 ft 160 kts 336°
2026-05-06 19:17 53.65874 9.97136 959 ft 159 kts 336°
2026-05-06 19:17 53.66885 9.96253 1459 ft 171 kts 338°
2026-05-06 19:18 53.68004 9.95302 1850 ft 188 kts 338°
2026-05-06 19:18 53.69223 9.94277 2250 ft 206 kts 338°
2026-05-06 19:18 53.70535 9.93112 2755 ft 220 kts 330°
2026-05-06 19:18 53.71453 9.90989 3407 ft 236 kts 287°
2026-05-06 19:19 53.71461 9.88119 3970 ft 255 kts 260°
2026-05-06 19:19 53.70974 9.85124 4608 ft 274 kts 252°
2026-05-06 19:19 53.70306 9.82075 5530 ft 280 kts 249°
2026-05-06 19:19 53.69606 9.79043 6529 ft 282 kts 250°
2026-05-06 19:20 53.68905 9.75942 7469 ft 285 kts 251°
2026-05-06 19:20 53.68218 9.72772 8402 ft 288 kts 252°
2026-05-06 19:20 53.67551 9.69554 9296 ft 293 kts 252°
2026-05-06 19:20 53.66888 9.66263 9772 ft 296 kts 252°
2026-05-06 19:21 53.66029 9.63105 9918 ft 302 kts 238°
2026-05-06 19:21 53.64631 9.60285 10160 ft 326 kts 222°
2026-05-06 19:21 53.62710 9.58150 10688 ft 337 kts 204°
2026-05-06 19:21 53.60457 9.57019 11449 ft 340 kts 188°
2026-05-06 19:22 53.58134 9.56547 12284 ft 341 kts 186°
2026-05-06 19:22 53.55766 9.56075 13104 ft 343 kts 187°
2026-05-06 19:22 53.53390 9.55601 13866 ft 346 kts 187°
2026-05-06 19:22 53.50976 9.55122 14466 ft 350 kts 187°
2026-05-06 19:23 53.48527 9.54636 14961 ft 358 kts 188°
2026-05-06 19:23 53.46018 9.54138 15358 ft 370 kts 188°
2026-05-06 19:23 53.43407 9.53621 15599 ft 384 kts 188°
2026-05-06 19:23 53.40708 9.53093 15824 ft 398 kts 188°
2026-05-06 19:24 53.37900 9.52548 15894 ft 414 kts 188°
2026-05-06 19:24 53.35059 9.51993 15886 ft 418 kts 188°
2026-05-06 19:24 53.32166 9.51425 15892 ft 418 kts 187°
2026-05-06 19:24 53.29279 9.50861 15894 ft 418 kts 188°
2026-05-06 19:25 53.26386 9.50297 15895 ft 418 kts 188°
2026-05-06 19:25 53.23498 9.49733 15889 ft 419 kts 187°
2026-05-06 19:25 53.20602 9.49165 15888 ft 418 kts 188°
2026-05-06 19:25 53.17701 9.48596 16035 ft 420 kts 188°
2026-05-06 19:26 53.14841 9.48038 17077 ft 405 kts 188°
2026-05-06 19:26 53.12102 9.47509 18421 ft 386 kts 188°
2026-05-06 19:26 53.09520 9.47013 19482 ft 374 kts 188°
2026-05-06 19:26 53.06939 9.46514 20160 ft 374 kts 188°
2026-05-06 19:27 53.04342 9.46006 20723 ft 376 kts 188°
2026-05-06 19:27 53.01729 9.45492 21252 ft 379 kts 188°
2026-05-06 19:27 52.99095 9.44980 21768 ft 383 kts 188°
2026-05-06 19:27 52.96442 9.44446 22273 ft 386 kts 188°
2026-05-06 19:28 52.93762 9.43880 22782 ft 389 kts 189°
2026-05-06 19:28 52.91065 9.43297 23283 ft 393 kts 189°
2026-05-06 19:28 52.88344 9.42717 23729 ft 396 kts 187°
2026-05-06 19:28 52.85574 9.42775 24164 ft 401 kts 176°
2026-05-06 19:29 52.82826 9.43183 24612 ft 403 kts 176°
2026-05-06 19:29 52.79986 9.43621 25067 ft 405 kts 176°
2026-05-06 19:29 52.77204 9.44062 25497 ft 408 kts 176°
2026-05-06 19:29 52.74360 9.44514 25936 ft 410 kts 176°
2026-05-06 19:30 52.71512 9.44969 26369 ft 413 kts 176°
2026-05-06 19:30 52.68646 9.45424 26801 ft 415 kts 176°
2026-05-06 19:30 52.65766 9.45878 27241 ft 417 kts 176°
2026-05-06 19:30 52.62869 9.46331 27668 ft 419 kts 176°
2026-05-06 19:31 52.59957 9.46784 28122 ft 421 kts 176°
2026-05-06 19:31 52.57028 9.47240 28556 ft 424 kts 176°
2026-05-06 19:31 52.51168 9.48169 29382 ft 428 kts 175°
2026-05-06 19:32 52.48209 9.48638 29782 ft 431 kts 176°
2026-05-06 19:32 52.45216 9.49104 30144 ft 433 kts 176°
2026-05-06 19:32 52.42211 9.49567 30477 ft 435 kts 176°
2026-05-06 19:32 52.39189 9.50032 30811 ft 437 kts 176°
2026-05-06 19:33 52.36156 9.50498 31139 ft 438 kts 176°
2026-05-06 19:33 52.33116 9.50966 31468 ft 439 kts 176°
2026-05-06 19:33 52.30069 9.51435 31885 ft 438 kts 176°
2026-05-06 19:33 52.27040 9.51901 32364 ft 436 kts 176°
2026-05-06 19:34 52.24024 9.52362 32834 ft 434 kts 177°
2026-05-06 19:34 52.21023 9.52820 33308 ft 432 kts 177°
2026-05-06 19:34 52.18034 9.53281 33784 ft 430 kts 177°
2026-05-06 19:34 52.15098 9.53740 34176 ft 429 kts 177°
2026-05-06 19:35 52.12131 9.54202 34534 ft 428 kts 177°
2026-05-06 19:35 52.09169 9.54659 34783 ft 428 kts 177°
2026-05-06 19:35 52.03288 9.55556 34847 ft 421 kts 177°
2026-05-06 19:36 51.97468 9.56438 34844 ft 419 kts 177°
2026-05-06 19:36 51.91686 9.57313 34843 ft 419 kts 177°
2026-05-06 19:37 51.85878 9.58200 34840 ft 419 kts 177°
2026-05-06 19:37 51.80080 9.59072 34841 ft 418 kts 177°
2026-05-06 19:38 51.74271 9.59950 34837 ft 418 kts 177°
2026-05-06 19:38 51.68479 9.60808 34837 ft 418 kts 177°
2026-05-06 19:39 51.62687 9.61681 34824 ft 418 kts 177°
2026-05-06 19:39 51.56886 9.62558 34825 ft 418 kts 177°
2026-05-06 19:40 51.51086 9.63420 34828 ft 418 kts 177°
2026-05-06 19:40 51.45319 9.64272 34821 ft 418 kts 177°
2026-05-06 19:41 51.39531 9.65138 34824 ft 417 kts 177°
2026-05-06 19:41 51.33757 9.65978 34834 ft 416 kts 178°
2026-05-06 19:42 51.27983 9.66589 34843 ft 414 kts 179°
2026-05-06 19:42 51.22229 9.67110 34844 ft 414 kts 179°
2026-05-06 19:43 51.16523 9.67650 34834 ft 413 kts 179°
2026-05-06 19:43 51.10792 9.68217 34845 ft 412 kts 179°
2026-05-06 19:44 51.05073 9.68793 34841 ft 411 kts 179°
2026-05-06 19:44 50.99369 9.69350 34837 ft 410 kts 179°
2026-05-06 19:45 50.93669 9.69907 34837 ft 410 kts 179°
2026-05-06 19:45 50.87983 9.70467 34836 ft 409 kts 179°
2026-05-06 19:46 50.82352 9.71031 34836 ft 408 kts 179°
2026-05-06 19:46 50.76687 9.71587 34834 ft 407 kts 179°
2026-05-06 19:47 50.71034 9.72136 34833 ft 407 kts 179°
2026-05-06 19:47 50.65389 9.72679 34827 ft 407 kts 179°
2026-05-06 19:48 50.59734 9.73230 34823 ft 406 kts 179°
2026-05-06 19:48 50.54083 9.73791 34819 ft 406 kts 179°
2026-05-06 19:49 50.48474 9.74336 34819 ft 406 kts 179°
2026-05-06 19:49 50.42835 9.74875 34821 ft 406 kts 179°
2026-05-06 19:50 50.37207 9.75406 34738 ft 404 kts 179°
2026-05-06 19:50 50.34418 9.75670 34414 ft 399 kts 179°
2026-05-06 19:50 50.31625 9.75938 32964 ft 408 kts 179°
2026-05-06 19:51 50.28752 9.76213 31375 ft 418 kts 178°
2026-05-06 19:51 50.25829 9.76494 29869 ft 424 kts 177°
2026-05-06 19:51 50.22860 9.76781 28084 ft 430 kts 176°
2026-05-06 19:51 50.19838 9.77070 26428 ft 436 kts 177°
2026-05-06 19:52 50.16824 9.77358 25604 ft 435 kts 177°
2026-05-06 19:52 50.13807 9.77650 25205 ft 435 kts 177°
2026-05-06 19:52 50.10822 9.77941 24997 ft 435 kts 177°
2026-05-06 19:52 50.07802 9.78233 24810 ft 431 kts 177°
2026-05-06 19:53 50.04874 9.78498 24794 ft 412 kts 178°
2026-05-06 19:53 50.02078 9.78698 24806 ft 393 kts 178°
2026-05-06 19:53 49.99403 9.78858 24809 ft 377 kts 178°
2026-05-06 19:53 49.96833 9.79000 24806 ft 362 kts 178°
2026-05-06 19:54 49.94336 9.79138 24805 ft 357 kts 178°
2026-05-06 19:54 49.91860 9.79282 24805 ft 355 kts 178°
2026-05-06 19:54 49.89392 9.79434 24818 ft 355 kts 178°
2026-05-06 19:54 49.86927 9.79652 24817 ft 355 kts 175°
2026-05-06 19:55 49.84466 9.80042 24822 ft 355 kts 174°
2026-05-06 19:55 49.82020 9.80534 24817 ft 355 kts 173°
2026-05-06 19:55 49.79574 9.81068 24807 ft 355 kts 172°
2026-05-06 19:55 49.77129 9.81602 24811 ft 355 kts 172°
2026-05-06 19:56 49.74688 9.82118 24815 ft 354 kts 173°
2026-05-06 19:56 49.72241 9.82617 24820 ft 354 kts 173°
2026-05-06 19:56 49.69798 9.83099 24816 ft 354 kts 173°
2026-05-06 19:56 49.67383 9.83566 24818 ft 354 kts 173°
2026-05-06 19:57 49.64943 9.84031 24697 ft 354 kts 173°
2026-05-06 19:57 49.62493 9.84494 24459 ft 352 kts 173°
2026-05-06 19:57 49.60062 9.84955 24220 ft 351 kts 173°
2026-05-06 19:57 49.57639 9.85413 23983 ft 350 kts 173°
2026-05-06 19:58 49.55217 9.85877 23747 ft 350 kts 173°
2026-05-06 19:58 49.52812 9.86340 23522 ft 348 kts 173°
2026-05-06 19:58 49.50413 9.86800 23268 ft 346 kts 173°
2026-05-06 19:58 49.48057 9.87250 22995 ft 345 kts 173°
2026-05-06 19:59 49.45680 9.87704 22703 ft 343 kts 173°
2026-05-06 19:59 49.43334 9.88153 22426 ft 336 kts 173°
2026-05-06 19:59 49.41022 9.88522 22149 ft 333 kts 181°
2026-05-06 19:59 49.38744 9.87955 21904 ft 332 kts 193°
2026-05-06 20:00 49.36516 9.87059 21625 ft 331 kts 194°
2026-05-06 20:00 49.34290 9.86147 21360 ft 330 kts 194°
2026-05-06 20:00 49.32077 9.85242 21106 ft 329 kts 194°
2026-05-06 20:00 49.29870 9.84326 20846 ft 329 kts 194°
2026-05-06 20:01 49.27617 9.83394 20594 ft 336 kts 194°
2026-05-06 20:01 49.25402 9.82482 20168 ft 325 kts 194°
2026-05-06 20:01 49.23235 9.81598 19497 ft 321 kts 194°
2026-05-06 20:01 49.21049 9.80723 18548 ft 337 kts 194°
2026-05-06 20:02 49.18725 9.79816 17432 ft 351 kts 194°
2026-05-06 20:02 49.16309 9.78900 16232 ft 364 kts 194°
2026-05-06 20:02 49.13803 9.77975 15193 ft 374 kts 194°
2026-05-06 20:02 49.11271 9.77060 14438 ft 374 kts 194°
2026-05-06 20:03 49.08738 9.76182 13772 ft 371 kts 194°
2026-05-06 20:03 49.06219 9.75340 13028 ft 368 kts 194°
2026-05-06 20:03 49.03753 9.74518 12727 ft 354 kts 194°
2026-05-06 20:03 49.01410 9.73742 12393 ft 335 kts 194°
2026-05-06 20:04 48.99188 9.73013 12007 ft 319 kts 194°
2026-05-06 20:04 48.97062 9.72317 11622 ft 306 kts 194°
2026-05-06 20:04 48.95018 9.71646 11244 ft 295 kts 194°
2026-05-06 20:04 48.93036 9.70998 10762 ft 289 kts 194°
2026-05-06 20:05 48.91127 9.70280 10233 ft 283 kts 203°
2026-05-06 20:05 48.89423 9.68860 9724 ft 276 kts 214°
2026-05-06 20:05 48.87846 9.67343 9416 ft 263 kts 214°
2026-05-06 20:05 48.86325 9.65870 9019 ft 256 kts 214°
2026-05-06 20:06 48.84841 9.64427 8643 ft 249 kts 214°
2026-05-06 20:06 48.83421 9.63054 8520 ft 236 kts 214°
2026-05-06 20:06 48.82053 9.61733 8389 ft 227 kts 214°
2026-05-06 20:06 48.80741 9.60470 8078 ft 221 kts 214°
2026-05-06 20:07 48.79444 9.59226 7632 ft 220 kts 214°
2026-05-06 20:07 48.78167 9.58006 7181 ft 218 kts 214°
2026-05-06 20:07 48.76881 9.56784 6754 ft 217 kts 214°
2026-05-06 20:07 48.75678 9.55447 6322 ft 213 kts 229°
2026-05-06 20:08 48.74888 9.53577 5776 ft 213 kts 251°
2026-05-06 20:08 48.74470 9.51423 5217 ft 212 kts 255°
2026-05-06 20:08 48.74073 9.49276 4692 ft 211 kts 255°
2026-05-06 20:08 48.73683 9.47183 4329 ft 201 kts 255°
2026-05-06 20:09 48.73313 9.45203 4046 ft 189 kts 255°
2026-05-06 20:09 48.72962 9.43327 3809 ft 179 kts 255°
2026-05-06 20:09 48.72635 9.41578 3573 ft 167 kts 255°
2026-05-06 20:09 48.72326 9.39929 3346 ft 158 kts 255°
2026-05-06 20:10 48.72034 9.38369 3134 ft 149 kts 255°
2026-05-06 20:10 48.71760 9.36913 2954 ft 139 kts 255°
2026-05-06 20:10 48.71504 9.35548 2779 ft 132 kts 254°
2026-05-06 20:10 48.71257 9.34234 2600 ft 131 kts 253°
2026-05-06 20:11 48.71013 9.32937 2432 ft 127 kts 253°
2026-05-06 20:11 48.70771 9.31649 2257 ft 127 kts 253°
2026-05-06 20:11 48.70520 9.30355 2033 ft 128 kts 253°
2026-05-06 20:11 48.70281 9.29050 1848 ft 131 kts 253°
2026-05-06 20:12 48.70030 9.27714 1669 ft 132 kts 252°
2026-05-06 20:12 48.69857 9.26827 1558 ft 133 kts 252°
2026-05-06 20:12 48.69611 9.25481 1393 ft 132 kts 252°
2026-05-06 20:12 48.69358 9.24147 1213 ft 131 kts 252°
2026-05-06 20:13 48.69137 9.22982 1217 ft 95 kts 253°
2026-05-06 20:13 48.68983 9.22166 1240 ft 75 kts 254°
2026-05-06 20:13 48.68840 9.21423 1261 ft 72 kts 253°
2026-05-06 20:13 48.68706 9.20707 1272 ft 64 kts 254°
2026-05-06 20:14 48.68679 9.20385 1276 ft 20 kts 275°
2026-05-06 20:14 48.68706 9.20180 1285 ft 19 kts 286°
2026-05-06 20:14 48.68720 9.20094 1287 ft 0 kts 289°
2026-05-06 20:15 48.68721 9.20090 1288 ft 3 kts 290°
2026-05-06 20:15 48.68749 9.20023 1291 ft 8 kts 309°
2026-05-06 20:15 48.68781 9.19970 1294 ft 6 kts 314°
2026-05-06 20:15 48.68805 9.19934 1296 ft 5 kts 314°
2026-05-06 20:16 48.68846 9.19894 1299 ft 12 kts 340°
2026-05-06 20:16 48.68890 9.19858 1303 ft 5 kts 302°
2026-05-06 20:16 48.68885 9.19794 1305 ft 7 kts 254°
2026-05-06 20:16 48.68883 9.19782 1305 ft 0 kts 253°
2026-05-06 20:17 48.68880 9.19752 1307 ft 3 kts 275°
2026-05-06 20:17 48.68888 9.19740 1307 ft 2 kts 323°
2026-05-06 20:17 48.68906 9.19734 1309 ft 3 kts 347°
2026-05-06 20:17 48.68937 9.19722 1311 ft 6 kts 345°
2026-05-06 20:18 48.68950 9.19716 1312 ft 1 kts 343°
2026-05-06 20:18 48.68954 9.19714 1312 ft 1 kts 343°